When you browse on this site, cookies collect data to enhance your experience and personalize the content and advertising you see.
Visit our Privacy Policy to learn more. By continuing to use the site, you agree to this use of cookies and data.

Hourly Weather Ventspils

Today, 7 August, Friday

Time Temperature Precipitation Wind Pressure Humidity
00:00 +16°C° 0 mm 3 mps 769 mmHg 82%
01:00 +16°C° 0 mm 3 mps 770 mmHg 83%
02:00 +16°C° 0 mm 3 mps 770 mmHg 82%
03:00 +14°C° 0 mm 3 mps 769 mmHg 82%
04:00 +15°C° 0 mm 2 mps 769 mmHg 81%
05:00 +17°C° 0 mm 2 mps 770 mmHg 74%
06:00 +19°C° 0 mm 2 mps 770 mmHg 68%
07:00 +21°C° 0 mm 2 mps 770 mmHg 59%
08:00 +23°C° 0 mm 2 mps 770 mmHg 54%
09:00 +25°C° 0 mm 2 mps 770 mmHg 49%
10:00 +26°C° 0 mm 2 mps 770 mmHg 43%
11:00 +26°C° 0 mm 2 mps 770 mmHg 42%
12:00 +27°C° 0 mm 2 mps 770 mmHg 41%
13:00 +27°C° 0 mm 2 mps 770 mmHg 40%
14:00 +27°C° 0 mm 2 mps 770 mmHg 42%
15:00 +26°C° 0 mm 2 mps 770 mmHg 44%
16:00 +26°C° 0 mm 2 mps 770 mmHg 46%
17:00 +24°C° 0 mm 2 mps 770 mmHg 54%
18:00 +21°C° 0 mm 2 mps 770 mmHg 61%
19:00 +20°C° 0 mm 1 mps 769 mmHg 68%
20:00 +19°C° 0 mm 2 mps 769 mmHg 71%
21:00 +18°C° 0 mm 2 mps 769 mmHg 73%
22:00 +17°C° 0 mm 2 mps 769 mmHg 76%
23:00 +17°C° 0 mm 2 mps 769 mmHg 76%

Tomorrow, 8 August, Saturday

Time Temperature Precipitation Wind Pressure Humidity
00:00 +16°C° 0 mm 2 mps 770 mmHg 76%
01:00 +16°C° 0 mm 2 mps 770 mmHg 76%
02:00 +16°C° 0 mm 2 mps 769 mmHg 77%
03:00 +16°C° 0 mm 2 mps 769 mmHg 78%
04:00 +16°C° 0 mm 2 mps 769 mmHg 79%
05:00 +17°C° 0 mm 2 mps 769 mmHg 75%
06:00 +19°C° 0 mm 2 mps 769 mmHg 71%
07:00 +21°C° 0 mm 2 mps 769 mmHg 67%
08:00 +24°C° 0 mm 1 mps 769 mmHg 62%
09:00 +26°C° 0 mm 1 mps 768 mmHg 57%
10:00 +27°C° 0 mm 0 mps 768 mmHg 52%
11:00 +29°C° 0 mm 1 mps 768 mmHg 50%
12:00 +29°C° 0 mm 1 mps 768 mmHg 48%
13:00 +29°C° 0 mm 1 mps 767 mmHg 46%
14:00 +29°C° 0 mm 2 mps 767 mmHg 48%
15:00 +28°C° 0 mm 2 mps 767 mmHg 49%
16:00 +27°C° 0 mm 2 mps 766 mmHg 51%
17:00 +26°C° 0 mm 2 mps 766 mmHg 58%
18:00 +24°C° 0 mm 2 mps 766 mmHg 65%
19:00 +21°C° 0 mm 2 mps 766 mmHg 72%
20:00 +20°C° 0 mm 2 mps 766 mmHg 74%
21:00 +19°C° 0 mm 2 mps 766 mmHg 75%
22:00 +19°C° 0 mm 1 mps 766 mmHg 77%
23:00 +19°C° 0 mm 1 mps 765 mmHg 80%

Day after tomorrow, 9 August, Sunday

Time Temperature Precipitation Wind Pressure Humidity
00:00 +19°C° 0 mm 1 mps 765 mmHg 83%
01:00 +19°C° 0 mm 1 mps 765 mmHg 85%
02:00 +19°C° 0 mm 1 mps 765 mmHg 86%
03:00 +19°C° 0 mm 1 mps 765 mmHg 87%
04:00 +19°C° 0 mm 1 mps 765 mmHg 87%
05:00 +20°C° 0 mm 1 mps 765 mmHg 82%
06:00 +22°C° 0 mm 1 mps 765 mmHg 76%
07:00 +24°C° 0 mm 1 mps 765 mmHg 70%
08:00 +23°C° 0 mm 0 mps 765 mmHg 65%
09:00 +25°C° 0 mm 0 mps 765 mmHg 60%
10:00 +27°C° 0 mm 0 mps 765 mmHg 55%
11:00 +29°C° 0 mm 1 mps 765 mmHg 55%
12:00 +28°C° 0 mm 2 mps 765 mmHg 54%
13:00 +28°C° 0 mm 2 mps 764 mmHg 54%
14:00 +27°C° 0 mm 3 mps 764 mmHg 56%
15:00 +27°C° 0 mm 3 mps 764 mmHg 58%
16:00 +26°C° 0 mm 3 mps 764 mmHg 61%
17:00 +25°C° 0 mm 3 mps 764 mmHg 67%
18:00 +22°C° 0 mm 3 mps 764 mmHg 74%
19:00 +21°C° 0 mm 3 mps 764 mmHg 81%
20:00 +20°C° 0 mm 3 mps 764 mmHg 84%
21:00 +19°C° 0 mm 3 mps 764 mmHg 88%
22:00 +18°C° 0 mm 2 mps 764 mmHg 91%
23:00 +18°C° 0 mm 3 mps 764 mmHg 93%

10 August, Monday

Time Temperature Precipitation Wind Pressure Humidity
00:00 +18°C° 0 mm 3 mps 764 mmHg 94%
01:00 +17°C° 0 mm 3 mps 764 mmHg 95%
02:00 +17°C° 0 mm 3 mps 764 mmHg 95%
03:00 +17°C° 0 mm 3 mps 764 mmHg 95%
04:00 +17°C° 0 mm 3 mps 764 mmHg 95%
05:00 +18°C° 0 mm 3 mps 764 mmHg 88%
06:00 +19°C° 0 mm 3 mps 764 mmHg 80%
07:00 +21°C° 0 mm 3 mps 764 mmHg 73%
08:00 +22°C° 0 mm 3 mps 764 mmHg 65%
09:00 +23°C° 0 mm 4 mps 765 mmHg 57%
10:00 +25°C° 0 mm 4 mps 765 mmHg 48%
11:00 +25°C° 0 mm 4 mps 765 mmHg 48%
12:00 +25°C° 0 mm 5 mps 765 mmHg 47%
13:00 +25°C° 0 mm 5 mps 765 mmHg 46%
14:00 +24°C° 0 mm 6 mps 764 mmHg 49%
15:00 +23°C° 0 mm 6 mps 764 mmHg 53%
16:00 +22°C° 0 mm 6 mps 764 mmHg 56%
17:00 +21°C° 0 mm 6 mps 764 mmHg 62%
18:00 +20°C° 0 mm 5 mps 764 mmHg 69%
19:00 +17°C° 0 mm 5 mps 764 mmHg 75%
20:00 +16°C° 0 mm 5 mps 765 mmHg 78%
21:00 +16°C° 0 mm 5 mps 765 mmHg 81%
22:00 +15°C° 0 mm 4 mps 765 mmHg 84%
23:00 +15°C° 0 mm 4 mps 765 mmHg 86%

11 August, Tuesday

Time Temperature Precipitation Wind Pressure Humidity
00:00 +14°C° 0 mm 4 mps 765 mmHg 88%
01:00 +14°C° 0 mm 3 mps 765 mmHg 90%
02:00 +14°C° 0 mm 3 mps 765 mmHg 91%
03:00 +14°C° 0 mm 3 mps 765 mmHg 91%
04:00 +13°C° 0 mm 3 mps 765 mmHg 91%
05:00 +16°C° 0 mm 3 mps 765 mmHg 83%
06:00 +18°C° 0 mm 3 mps 765 mmHg 75%
07:00 +20°C° 0 mm 3 mps 765 mmHg 67%
08:00 +21°C° 0 mm 3 mps 766 mmHg 61%
09:00 +22°C° 0 mm 3 mps 766 mmHg 55%
10:00 +23°C° 0 mm 4 mps 766 mmHg 49%
11:00 +23°C° 0 mm 4 mps 766 mmHg 49%
12:00 +23°C° 0 mm 4 mps 766 mmHg 48%
13:00 +23°C° 0 mm 5 mps 766 mmHg 48%
14:00 +23°C° 0 mm 5 mps 766 mmHg 50%
15:00 +22°C° 0 mm 5 mps 766 mmHg 53%
16:00 +22°C° 0 mm 6 mps 766 mmHg 55%
17:00 +20°C° 0 mm 5 mps 766 mmHg 61%
18:00 +19°C° 0 mm 5 mps 766 mmHg 66%
19:00 +16°C° 0 mm 5 mps 766 mmHg 72%
20:00 +15°C° 0 mm 4 mps 766 mmHg 75%
21:00 +14°C° 0 mm 4 mps 767 mmHg 78%
22:00 +13°C° 0 mm 4 mps 767 mmHg 81%
23:00 +13°C° 0 mm 4 mps 767 mmHg 84%

12 August, Wednesday

Time Temperature Precipitation Wind Pressure Humidity
00:00 +13°C° 0 mm 4 mps 767 mmHg 87%
01:00 +13°C° 0 mm 3 mps 767 mmHg 89%
02:00 +13°C° 0 mm 3 mps 767 mmHg 90%
03:00 +12°C° 0 mm 3 mps 767 mmHg 91%
04:00 +13°C° 0 mm 2 mps 767 mmHg 92%
05:00 +15°C° 0 mm 2 mps 767 mmHg 84%
06:00 +18°C° 0 mm 1 mps 767 mmHg 75%
07:00 +20°C° 0 mm 1 mps 767 mmHg 67%
08:00 +21°C° 0 mm 1 mps 767 mmHg 62%
09:00 +22°C° 0 mm 1 mps 767 mmHg 56%
10:00 +23°C° 0 mm 1 mps 768 mmHg 51%
11:00 +23°C° 0 mm 2 mps 767 mmHg 52%
12:00 +21°C° 0 mm 2 mps 767 mmHg 53%
13:00 +21°C° 0 mm 2 mps 767 mmHg 54%
14:00 +21°C° 0 mm 2 mps 767 mmHg 55%
15:00 +21°C° 0 mm 2 mps 767 mmHg 56%
16:00 +21°C° 0 mm 2 mps 767 mmHg 57%
17:00 +19°C° 0 mm 2 mps 767 mmHg 63%
18:00 +18°C° 0 mm 2 mps 766 mmHg 69%
19:00 +16°C° 0 mm 1 mps 766 mmHg 75%
20:00 +16°C° 0 mm 1 mps 766 mmHg 77%
21:00 +15°C° 0 mm 1 mps 766 mmHg 79%
22:00 +14°C° 0 mm 1 mps 766 mmHg 81%
23:00 +14°C° 0 mm 2 mps 766 mmHg 80%
Show more